{"data":{"norad_id":53144,"intl_designator":"2022-083N","name":"STARLINK-4100","alt_names":[],"object_type":"PAYLOAD","status":"ACTIVE","operator":null,"country":"US","launch_date":"2022-07-17","launch_site_code":"AFETR","launch_vehicle":null,"mission":null,"orbit_class":"UNKNOWN","rcs_meters":null,"size_class":null,"mass_kg":null,"dimensions":null,"purposes":["comms"],"wikipedia_slug":null,"has_3d_model":false,"image_url":null,"decayed_at":null,"tle_current":{"epoch":"2026-09-19T22:17:41.259264Z","epoch_age_seconds":121627,"freshness":"FRESH","line1":"1 53144U 22083N   26262.92894976 -.00002589  00000+0 -67362-4 0  9997","line2":"2 53144  53.1596   6.7054 0001513 141.7185 218.3925 15.33562864230757","mean_motion":15.33562864,"eccentricity":0.0001513,"inclination_deg":53.1596,"raan_deg":6.7054,"arg_perigee_deg":141.7185,"mean_anomaly_deg":218.3925,"bstar":-6.7362e-5,"rev_number":23075,"period_min":93.89898737141,"perigee_km":464.15712084284,"apogee_km":466.22791235456,"semimajor_km":6843.3295165987,"source":"CELESTRAK","updated_at":"2026-09-20T09:00:40.180688Z"}}}